sat.trackr.live / text

‹ back to catalog

STARLINK-33687

NORAD 63485 · 2025-070AB

PAYLOAD ACTIVE UNKNOWN

§ Identity

Operator
Country
US
Launch date
2025-04-06
Launch site
AFETR
Launch vehicle
Mass (kg)
RCS (m²)

Purposes: comms

External: N2YO · Heavens-Above · Gunter

§ Orbital elements

Epoch: 2026-09-20T23:05:25.391616Z

Period
94.27 min
Inclination
42.9964°
Eccentricity
0.0000274
Mean motion
15.27590090 rev/d
Perigee alt
482.8 km
Apogee alt
483.2 km
Semi-major
6,861.2 km
B*
3.1720e-4
RAAN
236.6959°
Arg perigee
302.1202°
Mean anomaly
57.9623°
Rev number
8,284

§ Raw data

STARLINK-336871 63485U 25070AB  26263.96209944  .00008480  00000+0  31720-3 0  99972 63485  42.9964 236.6959 0000274 302.1202  57.9623 15.27590090 82847

JSON: /api/v1/satellites/63485 · /tle

For live sub-satellite position, see the globe view (requires WebGL).

§ Visibility from observer

Set your observer location to see the next 7 days of passes ≥ 10°. The values pass through the URL so the page stays shareable.

No JS? Fill the form by hand. The geolocation button needs JavaScript.